Temperature
23 20 20 21 22 22 22 21 21 21 21 19 18 17 16 16 16 15 15 15 15 15 16 17 17 17 18 18 19 19 20 20 20 20 20 20 20 20 20 19 19 19 19 19
20 20 22 23 22 21 20 20 19 20 21 19 17 16 16 15 15 15 14 14 14 14 15 16 16 16 16 17 17 18 18 19 19 19 19 19 20 20 19 19 19 19 19 19
20 21 22 22 20 20 20 20 20 20 19 19 17 15 14 15 15 14 14 13 13 13 14 14 15 15 15 16 16 17 17 18 18 19 19 19 19 19 19 19 19 18 18 18
20 20 21 20 20 20 19 20 20 20 18 16 17 14 13 13 13 14 13 13 13 13 13 14 14 14 15 15 15 16 16 17 17 18 18 18 18 18 19 19 18 18 18 18
20 19 19 19 19 19 19 20 19 19 18 16 15 13 12 12 12 13 13 13 12 12 12 13 13 13 14 14 15 15 16 16 17 17 17 18 18 18 18 18 18 18 17 17
20 21 20 19 19 19 18 18 17 15 14 14 14 13 12 12 12 12 12 12 12 12 12 12 13 13 14 14 14 15 15 15 16 16 16 17 17 17 17 17 17 17 17 17
18 19 20 20 18 18 16 15 15 15 13 14 14 13 12 12 13 12 12 12 12 12 12 12 12 13 13 14 14 14 14 15 15 15 16 16 16 16 16 16 16 16 16 16
17 17 19 19 18 18 17 15 14 15 14 14 13 12 12 13 13 13 12 12 12 12 12 12 12 12 13 13 13 13 14 14 14 14 15 15 15 15 15 15 16 16 16 15
16 17 19 19 19 18 17 15 15 14 14 13 13 13 13 13 13 13 13 12 12 12 12 12 12 12 12 13 13 13 13 13 14 14 14 15 15 15 15 15 15 15 15 15
17 17 18 19 18 17 16 16 13 13 14 13 13 13 12 12 12 12 12 12 12 12 12 12 12 12 12 12 13 13 13 13 13 14 14 14 14 14 14 15 15 15 15 15
17 16 17 17 16 16 16 15 13 12 12 12 12 12 13 12 12 11 12 12 13 13 13 13 13 13 13 13 13 13 13 13 13 13 13 14 14 14 14 14 14 14 15 15
16 14 15 17 17 17 17 16 14 13 13 12 11 12 13 12 13 12 13 13 13 13 13 13 13 13 13 13 13 13 12 13 13 13 13 14 14 14 14 14 14 14 14 14
15 14 14 15 15 16 17 16 15 12 11 11 11 12 13 13 13 13 13 14 14 14 14 13 13 13 13 13 13 13 13 13 13 13 13 13 13 14 14 14 14 14 14 14
16 14 14 16 15 15 16 16 16 13 11 12 12 13 13 13 12 14 14 14 14 14 14 14 14 14 14 13 13 13 13 12 13 13 13 13 13 13 13 13 14 14 14 14
15 15 16 16 17 17 16 16 16 15 13 12 13 13 13 13 13 14 14 14 14 14 14 14 14 14 14 13 13 13 12 12 12 13 13 13 13 13 13 13 13 13 14 14
15 16 16 16 17 17 16 16 16 16 15 14 14 13 14 14 14 14 14 14 14 14 14 14 14 14 14 13 13 13 12 12 12 12 12 12 13 13 13 13 13 13 13 13
14 15 15 15 16 16 15 16 16 16 15 15 14 14 14 14 14 14 14 14 14 14 14 14 14 14 14 14 13 13 12 12 12 12 12 12 12 12 12 12 13 13 13 13
15 14 13 14 16 16 15 16 17 16 15 15 15 14 15 15 15 15 14 14 14 14 14 14 14 14 14 13 13 13 13 12 12 12 12 12 12 12 12 12 12 12 12 12
14 14 13 13 15 15 16 17 16 15 15 15 15 15 15 15 14 14 14 14 14 14 14 14 14 14 14 14 13 13 13 12 12 12 12 12 12 12 12 12 12 12 12 12
14 12 13 14 16 16 16 16 17 16 14 15 15 15 15 14 11 12 14 14 14 14 14 14 14 14 14 14 13 13 13 13 12 12 12 12 12 12 12 11 11 11 12 11
15 14 14 14 15 15 16 17 17 14 14 15 16 15 15 14 13 15 15 14 14 14 14 14 14 14 14 14 14 13 13 13 12 12 12 12 12 12 11 11 11 11 11 11
15 14 14 13 14 15 16 16 14 14 16 16 16 15 15 15 15 15 15 14 14 14 14 14 14 14 14 14 14 13 13 13 13 12 12 12 12 12 11 11 11 11 11 11
14 14 13 13 14 16 17 17 17 17 16 16 15 15 15 15 15 15 14 14 14 14 14 14 14 14 14 14 14 13 13 13 13 12 12 12 12 11 11 11 11 11 11 11
16 15 14 14 15 16 17 17 17 17 16 16 15 15 15 15 14 14 14 14 14 14 14 14 14 14 14 14 14 13 13 13 13 12 12 12 11 11 11 11 11 11 11 11
16 16 15 15 15 16 16 17 16 16 16 15 15 15 15 14 14 14 14 14 14 14 14 14 14 14 14 14 14 13 13 13 13 12 12 12 11 11 11 11 11 11 11 10
16 15 14 14 16 16 17 17 16 16 16 15 15 14 14 14 14 14 14 14 14 14 14 14 14 14 14 14 14 13 13 13 13 12 12 12 11 11 11 11 10 10 10 10
Wind_Speed
5 7 4 3 4 4 3 4 3 3 4 7 10 11 13 14 17 17 16 15 14 13 12 13 14 13 12 12 12 10 10 8 4 2 3 5 6 6 6 6 7 9 9 10
7 6 4 6 8 8 7 5 4 4 5 5 9 12 10 13 15 13 14 15 15 16 16 16 15 15 13 12 12 11 11 10 7 4 4 4 4 4 5 4 4 6 7 8
8 3 6 9 9 7 5 4 1 3 5 4 7 6 9 8 11 15 15 13 14 15 16 16 15 14 13 13 12 12 11 10 9 6 2 1 1 1 2 4 4 4 6 7
7 6 8 8 6 5 3 3 3 3 3 3 3 2 7 10 12 18 18 16 16 15 15 14 14 14 13 13 12 11 11 10 9 7 2 3 4 5 5 5 5 5 4 5
4 5 8 7 5 5 5 7 4 2 3 3 6 5 6 8 12 17 17 17 16 15 14 14 14 13 13 12 12 11 11 10 10 8 4 1 2 3 3 4 5 5 4 5
5 3 4 4 4 4 5 6 7 6 6 4 5 4 5 7 11 15 16 17 17 16 14 13 12 12 12 12 12 11 11 10 10 9 6 3 1 2 3 4 4 4 3 4
6 6 5 5 7 9 10 7 5 7 6 1 2 6 2 6 8 9 13 15 16 14 13 13 13 13 13 13 13 12 11 10 10 9 8 5 3 2 2 3 4 4 3 3
4 5 6 6 4 4 5 6 5 2 1 1 4 3 2 4 7 8 10 11 13 13 12 12 13 12 11 13 13 12 12 11 10 9 8 6 5 3 2 1 1 2 3 3
5 2 2 5 6 4 5 4 3 5 2 3 2 1 3 5 9 10 11 12 13 13 12 12 12 12 11 12 12 11 11 11 11 9 7 7 6 5 4 2 1 1 1 2
5 4 2 4 7 8 4 2 6 5 2 1 1 1 4 8 10 11 11 12 12 12 12 11 11 11 10 10 9 10 10 10 10 10 9 7 7 6 5 4 3 2 1 1
4 5 4 5 5 5 7 6 5 4 4 3 0 3 3 5 7 8 10 10 10 11 11 10 10 10 9 9 8 9 10 10 10 10 9 9 8 8 7 6 5 3 2 1
4 5 4 3 3 2 4 3 3 3 1 2 3 4 5 5 7 7 8 9 9 9 9 9 9 9 9 9 8 8 8 9 9 9 9 9 9 8 8 7 6 5 4 2
4 6 4 4 6 5 3 4 3 5 4 2 2 4 3 4 6 6 6 7 8 8 8 8 8 9 9 8 8 8 8 8 8 9 9 10 10 10 9 9 8 7 6 6
4 5 5 4 5 3 0 2 3 5 3 2 3 4 4 5 5 6 5 6 6 7 7 7 8 9 8 7 6 7 8 7 8 9 9 10 10 9 9 9 8 8 7 6
5 4 2 3 4 4 3 2 2 3 4 5 4 4 5 4 3 3 4 5 5 7 7 8 8 8 8 7 6 7 7 8 7 8 9 9 9 8 8 8 8 7 8 7
4 4 2 1 3 3 1 2 3 2 3 3 4 3 4 3 1 2 4 4 5 7 7 9 9 9 8 6 5 5 6 7 7 8 8 8 9 9 9 8 8 8 8 7
3 4 3 1 2 1 2 4 5 3 3 5 5 5 3 2 2 1 2 3 4 6 7 8 8 8 7 5 3 4 4 5 6 7 8 8 8 9 9 9 9 8 7 7
4 4 3 2 2 2 6 3 4 4 2 3 4 5 5 5 3 1 1 1 3 5 6 7 8 7 6 4 3 3 4 5 6 6 7 7 8 8 8 8 9 8 6 7
4 5 4 3 1 3 4 2 4 4 1 2 6 5 4 5 4 4 2 1 2 4 5 5 5 4 5 4 3 4 5 5 6 6 6 6 6 7 8 9 8 6 6 7
5 6 5 3 1 4 5 3 4 5 1 3 5 5 5 6 3 3 4 2 3 4 4 5 6 5 5 4 3 4 5 5 5 4 4 5 5 6 7 7 7 6 6 6
2 3 2 2 3 6 5 3 5 3 6 4 6 7 6 5 5 5 2 1 2 4 5 5 6 5 5 4 3 4 4 4 3 3 4 5 5 6 6 7 6 6 6 7
6 4 4 4 2 6 6 6 6 7 4 7 7 7 6 5 3 2 1 1 3 4 6 6 6 6 5 4 3 3 4 4 2 4 5 5 6 6 6 7 7 7 7 8
6 8 6 7 7 5 6 7 6 7 8 7 7 6 6 5 3 2 1 1 3 4 5 5 5 6 6 5 3 2 4 3 2 4 4 4 6 6 6 7 7 7 7 6
2 4 4 2 4 4 5 5 6 7 8 8 7 7 6 5 4 3 1 1 3 4 4 4 5 6 6 5 4 3 3 2 4 4 3 3 5 5 6 6 6 6 6 6
6 5 3 2 3 4 4 6 8 8 8 8 7 6 7 6 4 3 1 1 2 3 4 4 4 4 5 5 4 4 3 3 5 3 3 3 3 3 4 5 5 5 4 3
5 7 8 8 9 8 9 9 10 10 9 9 8 6 6 6 5 3 1 1 1 2 3 4 5 5 4 4 3 4 3 3 4 3 2 2 2 2 2 3 4 6 5 7
Wind_Direction
45 57 50 50 81 104 90 80 50 28 31 72 79 69 48 35 38 32 23 14 9 3 358 1 1 359 359 360 357 349 342 334 329 279 220 204 200 194 190 197 195 190 187 187
50 33 27 67 54 61 64 65 19 340 16 80 90 71 51 40 36 28 19 8 1 356 356 357 357 357 355 352 352 351 345 335 325 300 255 223 203 192 187 188 197 191 179 179
97 11 42 56 41 37 42 90 26 321 3 55 103 51 20 13 22 18 15 5 358 355 349 348 351 350 349 350 351 349 340 336 330 311 273 236 157 141 173 185 195 201 183 172
69 12 41 48 30 20 324 284 289 294 35 344 62 84 7 347 1 6 2 357 350 346 343 344 345 344 346 344 344 344 342 341 340 334 293 205 202 202 203 196 192 191 190 176
74 44 45 32 347 345 282 290 290 267 129 49 25 87 351 346 357 352 350 349 345 341 342 343 344 339 340 342 346 345 347 348 347 351 341 257 205 206 190 180 182 185 191 190
61 56 54 354 328 339 340 13 40 52 73 51 348 81 9 354 339 337 343 346 345 343 345 347 348 347 345 349 351 351 352 353 353 357 359 7 98 166 165 176 190 190 190 194
31 11 1 9 10 360 30 52 35 23 30 19 33 76 20 322 333 334 335 339 345 352 355 354 356 356 352 352 354 354 355 355 356 1 6 11 29 78 153 176 188 189 191 205
87 7 355 10 25 354 15 89 115 131 225 292 31 70 267 314 332 334 337 338 348 356 357 359 358 356 353 354 355 356 359 359 359 4 8 16 31 39 48 71 144 180 201 211
121 91 4 34 27 51 23 22 147 135 82 70 31 355 296 332 344 347 348 348 351 350 351 355 354 355 354 356 357 357 1 3 4 5 13 24 28 34 32 30 53 101 192 205
123 117 7 14 23 18 60 63 57 70 88 49 1 335 312 322 330 332 338 341 340 342 347 350 351 349 350 351 353 0 4 6 7 12 21 29 22 26 28 32 28 9 331 232
89 107 19 29 34 1 14 27 58 81 116 132 256 285 250 270 292 307 319 325 332 339 341 342 344 342 342 348 356 2 2 7 10 13 17 21 19 21 27 28 18 3 347 4
55 103 69 17 331 24 60 53 100 111 45 112 147 265 264 253 275 287 304 317 327 331 334 336 338 340 343 349 355 358 359 4 7 10 16 19 18 21 26 23 16 18 20 17
80 98 83 351 338 357 21 12 80 117 104 110 148 267 280 278 289 294 301 314 325 329 334 335 335 336 339 344 351 354 357 360 4 12 19 19 18 20 21 21 21 22 27 29
104 89 143 177 217 205 113 25 65 99 113 155 207 233 276 289 295 308 317 317 320 329 337 341 340 338 339 345 355 358 1 3 10 18 24 21 14 13 15 21 23 25 28 37
93 107 156 190 184 162 160 149 119 121 164 171 206 207 243 251 263 299 322 330 343 344 346 344 340 341 346 354 4 12 12 10 14 21 23 18 15 18 20 22 23 28 33 41
90 130 138 232 198 168 157 195 163 156 152 159 162 221 241 227 239 346 342 350 352 344 344 344 342 343 347 356 6 13 15 12 19 24 21 17 19 24 23 21 23 32 37 41
83 113 110 262 223 94 275 231 190 184 188 174 192 217 206 175 172 233 330 358 348 338 342 345 340 338 345 358 15 14 7 14 24 24 19 19 21 22 19 23 28 32 35 43
113 102 115 106 94 249 257 246 157 152 189 181 170 183 183 177 176 217 187 33 346 337 339 338 338 342 348 7 24 16 19 25 27 26 22 19 22 22 18 23 26 25 33 42
113 124 105 108 162 274 290 232 158 148 285 205 165 174 162 140 69 356 315 314 322 326 328 325 329 334 352 6 13 31 26 23 26 24 22 20 23 24 24 24 20 21 34 39
66 86 104 112 154 246 246 216 143 107 281 244 155 151 145 126 98 276 286 310 338 339 332 338 341 353 1 351 12 37 20 17 17 15 20 21 27 30 28 23 21 24 36 39
35 50 111 172 226 262 242 159 108 153 229 190 147 142 136 152 190 229 263 332 342 335 336 348 353 352 339 333 18 28 8 356 352 23 33 28 27 35 32 30 28 31 37 40
172 166 195 165 209 262 203 147 174 207 168 145 141 144 139 153 168 152 114 20 346 344 344 353 355 345 339 344 14 8 341 331 19 52 50 39 32 37 41 37 32 32 36 42
182 185 185 186 214 238 187 187 186 151 146 151 149 150 137 130 123 104 93 5 335 337 340 347 354 346 344 343 356 352 322 346 75 72 59 51 49 44 40 42 37 33 34 41
259 152 134 209 257 200 173 152 148 151 149 154 150 142 129 129 125 109 102 351 335 331 334 344 357 357 344 338 340 338 337 31 96 92 72 67 67 52 40 40 40 44 37 37
221 161 150 224 229 153 201 180 162 150 140 140 139 139 141 137 134 132 148 321 329 332 331 347 354 343 331 334 340 345 9 75 92 92 81 80 80 74 53 45 38 40 35 34
200 173 174 212 202 179 204 192 163 151 155 154 149 151 153 152 157 147 173 296 317 326 335 348 348 344 335 341 337 342 8 98 111 102 94 104 116 111 88 63 40 33 39 39
Height
1532 1538 1544 1541 1538 1540 1542 1546 1549 1545 1542 1546 1552 1556 1557 1555 1552 1551 1549 1547 1544 1542 1539 1535 1532 1528 1525 1523 1520 1518 1516 1515 1514 1514 1515 1516 1515 1516 1518 1520 1522 1524 1527 1529
1540 1546 1540 1537 1537 1539 1544 1549 1552 1548 1543 1548 1556 1560 1560 1559 1558 1557 1554 1551 1547 1542 1537 1534 1530 1527 1523 1520 1517 1515 1512 1511 1510 1510 1510 1510 1511 1512 1514 1516 1518 1520 1522 1524
1545 1546 1539 1539 1542 1545 1547 1550 1550 1550 1547 1548 1555 1565 1565 1562 1561 1558 1555 1553 1549 1544 1539 1534 1530 1526 1523 1518 1515 1512 1510 1508 1506 1505 1505 1505 1506 1507 1509 1510 1512 1514 1517 1519
1546 1545 1542 1545 1547 1547 1552 1544 1544 1546 1554 1562 1558 1576 1574 1567 1563 1560 1557 1553 1549 1544 1540 1535 1530 1526 1522 1518 1515 1511 1508 1505 1503 1501 1501 1501 1501 1501 1503 1505 1507 1509 1512 1515
1550 1548 1548 1550 1550 1547 1547 1541 1543 1545 1554 1564 1566 1577 1581 1571 1568 1564 1560 1556 1551 1545 1540 1535 1530 1527 1522 1518 1514 1511 1507 1503 1501 1498 1497 1497 1497 1498 1499 1501 1503 1505 1506 1509
1550 1548 1549 1550 1547 1546 1544 1544 1547 1554 1563 1578 1577 1581 1586 1580 1576 1569 1563 1558 1552 1546 1540 1535 1530 1527 1523 1518 1515 1511 1507 1502 1499 1497 1495 1494 1494 1495 1496 1497 1499 1500 1502 1505
1558 1555 1552 1550 1551 1549 1550 1561 1573 1577 1585 1586 1578 1583 1588 1580 1575 1572 1566 1560 1554 1548 1542 1536 1531 1527 1523 1519 1515 1511 1507 1503 1499 1497 1494 1493 1492 1493 1494 1495 1496 1498 1499 1501
1567 1570 1557 1554 1555 1556 1557 1565 1581 1588 1589 1587 1582 1587 1586 1578 1575 1571 1567 1562 1556 1550 1544 1538 1533 1528 1525 1520 1516 1512 1508 1504 1501 1498 1495 1493 1493 1492 1493 1494 1495 1496 1497 1498
1568 1570 1558 1556 1555 1556 1561 1566 1566 1578 1581 1590 1590 1586 1581 1576 1574 1570 1567 1562 1557 1552 1546 1541 1536 1531 1526 1522 1518 1514 1510 1506 1502 1499 1497 1495 1494 1493 1493 1493 1494 1494 1495 1496
1559 1568 1562 1559 1558 1558 1561 1563 1573 1581 1589 1595 1591 1590 1590 1580 1576 1571 1567 1563 1558 1554 1549 1544 1539 1534 1529 1525 1520 1516 1512 1508 1504 1501 1499 1497 1496 1495 1494 1494 1494 1494 1494 1495
1556 1569 1570 1566 1569 1570 1567 1569 1575 1583 1585 1595 1598 1595 1582 1580 1576 1573 1568 1564 1560 1556 1551 1546 1542 1537 1532 1528 1523 1519 1515 1511 1507 1504 1501 1499 1497 1496 1495 1495 1495 1494 1494 1494
1560 1571 1578 1572 1567 1565 1566 1569 1575 1586 1589 1590 1596 1595 1577 1576 1574 1572 1569 1565 1561 1557 1553 1549 1544 1540 1535 1531 1526 1522 1518 1514 1510 1507 1504 1501 1500 1499 1497 1497 1496 1495 1495 1495
1561 1572 1586 1584 1580 1572 1569 1568 1571 1579 1588 1592 1596 1592 1575 1575 1573 1571 1569 1565 1562 1558 1554 1550 1546 1542 1538 1533 1529 1525 1521 1517 1514 1510 1506 1504 1502 1500 1499 1498 1497 1497 1496 1496
1559 1571 1580 1584 1581 1575 1573 1571 1571 1577 1589 1590 1587 1583 1577 1575 1573 1570 1568 1566 1563 1560 1556 1552 1548 1544 1540 1537 1533 1529 1524 1520 1517 1513 1510 1506 1504 1502 1501 1500 1499 1498 1498 1498
1561 1571 1570 1571 1568 1569 1571 1571 1571 1575 1579 1585 1581 1579 1576 1573 1572 1570 1568 1566 1563 1560 1557 1553 1550 1546 1543 1539 1535 1531 1527 1523 1520 1516 1513 1510 1507 1505 1503 1502 1501 1501 1500 1499
1563 1569 1571 1572 1569 1570 1572 1571 1571 1572 1573 1575 1576 1577 1572 1571 1571 1569 1568 1566 1563 1561 1558 1555 1552 1548 1545 1541 1538 1534 1530 1526 1523 1519 1515 1513 1510 1508 1506 1504 1503 1503 1502 1502
1565 1569 1576 1580 1572 1573 1579 1571 1570 1570 1569 1572 1576 1574 1570 1571 1570 1569 1568 1566 1564 1562 1559 1556 1553 1550 1547 1543 1540 1536 1533 1529 1525 1522 1518 1515 1513 1510 1508 1507 1505 1504 1504 1503
1565 1571 1579 1581 1579 1584 1576 1564 1564 1567 1568 1567 1568 1568 1569 1569 1570 1569 1568 1567 1564 1562 1560 1557 1554 1551 1549 1546 1542 1539 1535 1532 1528 1525 1521 1518 1516 1513 1511 1509 1508 1507 1506 1505
1562 1568 1578 1584 1583 1578 1571 1564 1564 1568 1570 1567 1567 1567 1568 1569 1570 1570 1568 1567 1565 1563 1560 1558 1555 1553 1550 1547 1544 1541 1538 1534 1531 1528 1525 1522 1519 1517 1514 1512 1510 1509 1508 1507
1564 1568 1577 1580 1580 1581 1570 1562 1562 1567 1572 1566 1565 1567 1568 1569 1573 1572 1569 1567 1565 1563 1561 1559 1556 1554 1551 1549 1546 1543 1540 1537 1534 1531 1528 1526 1523 1520 1517 1515 1514 1512 1511 1510
1570 1573 1576 1579 1579 1573 1562 1560 1563 1575 1571 1565 1565 1566 1567 1568 1570 1570 1568 1567 1566 1564 1561 1559 1557 1555 1552 1550 1547 1544 1542 1539 1537 1534 1532 1529 1526 1523 1521 1518 1516 1515 1513 1512
1568 1573 1575 1579 1579 1572 1557 1559 1564 1563 1560 1562 1564 1566 1567 1568 1568 1569 1568 1567 1566 1564 1562 1560 1558 1556 1553 1551 1549 1546 1543 1541 1539 1537 1534 1531 1528 1526 1523 1521 1519 1517 1516 1514
1560 1561 1563 1566 1565 1554 1554 1555 1556 1557 1559 1562 1564 1565 1566 1567 1568 1568 1568 1567 1566 1564 1563 1561 1558 1556 1554 1552 1550 1547 1545 1543 1541 1539 1537 1534 1532 1529 1527 1524 1522 1520 1519 1517
1553 1552 1555 1557 1554 1552 1553 1554 1555 1557 1559 1561 1563 1565 1566 1567 1568 1568 1568 1567 1566 1565 1563 1561 1559 1557 1555 1553 1551 1549 1546 1544 1542 1541 1539 1537 1534 1532 1530 1528 1526 1524 1522 1520
1549 1550 1553 1554 1551 1552 1553 1553 1554 1556 1558 1561 1562 1564 1565 1566 1567 1567 1567 1567 1566 1564 1563 1561 1559 1557 1555 1554 1552 1550 1548 1546 1544 1542 1540 1539 1537 1535 1533 1531 1529 1527 1525 1523
1543 1545 1549 1550 1545 1547 1548 1550 1553 1555 1557 1559 1561 1563 1564 1565 1566 1566 1566 1566 1565 1564 1563 1561 1559 1558 1556 1554 1552 1550 1548 1547 1545 1543 1542 1541 1539 1537 1536 1534 1532 1530 1528 1527